x

Buoy E01 - Central Maine Shelf (44032) Wave Buoy

5:04 - Thu 26th May 2016 All times are EDT. -4 hours from GMT.

  • Sig Wave height 2.3ft
  • Peak Period 8s
  • Wind
    7mph, 9mph gusts
  • Sea Temp 53°f
  • Air Temp 56°f
  • Sea Pressure 1017.5mb
  • Buoy E01 - Central Maine Shelf
  • Buoy E01 - Central Maine Shelf

More Historic Weather Station data

Upgrade to MSW Pro to gain access to the past 30 days of data for over 8000 Wavebouys and Weather Stations around the globe.

Join Pro

Comparision Forecast

View Surf forecast
   
jeu. 05/26 5:04 2.5ft 8s 7 9 mph 1017.5mb 53f 56f
4:04 2.5ft 6s 7
mph
1017.2mb 53f 56f
3:04 3ft 8s 9 11 mph 1017.2mb 53f 57f
2:04 3ft 8s 9 11 mph 1017mb 54f 56f
1:04 2.5ft 8s 7 9 mph 1017.2mb 54f 56f
12:04 3ft 8s 7 9 mph 1017.1mb 53f 60f
11:04 3ft 8s 9
mph
1017.1mb 53f 59f
10:04 2.5ft 8s 4 7 mph 1017.4mb 52f 57f
9:04 2.5ft 8s 7
mph
1017.7mb 51f 56f
8:04 2.5ft 8s 2 4 mph 1017.5mb 51f 56f
7:04 2.5ft 8s 7 9 mph 1016.8mb 51f 55f
6:04 2.5ft 8s 4
mph
1016.2mb 51f 56f
5:04 2.5ft 8s 4 7 mph 1015.2mb 51f 54f
4:04 2.5ft 11s 7 9 mph 1014.4mb 51f 53f
3:04 3ft 6s 2 4 mph 1013.8mb 51f 53f
2:04 3.5ft 6s 9
mph
1013.2mb 51f 53f
1:04 4ft 8s 4 7 mph 1012.8mb 51f 53f
12:04 3ft 8s 4 13 mph 1012.8mb 51f 52f
mer. 05/25 11:04 3.5ft 8s 9 11 mph 1013.2mb 51f 52f
10:04 3.5ft 8s 4 9 mph 1013.8mb 51f 52f
9:04 3.5ft 8s 4 7 mph 1013.8mb 51f 52f
8:04 3.5ft 8s 4 7 mph 1012.5mb 51f 52f
7:04 3.5ft 8s 4
mph
1012.7mb 51f 52f
6:04 4ft 8s 7 13 mph 1013.3mb 51f 52f
5:04 3.5ft 8s 9 11 mph 1012.7mb 51f 51f
4:04 3.5ft 11s 11 13 mph 1012.7mb 51f 51f
3:04 3.5ft 8s 11 13 mph 1013mb 51f 50f
2:04 3.5ft 8s 9 11 mph 1013.2mb 51f 50f
1:04 4.5ft 8s 7 9 mph 1013.9mb 51f 50f
12:04 4ft 8s 9 11 mph 1014.4mb 51f 49f
11:04 4ft 8s 7 9 mph 1014.3mb 51f 51f
10:04 4ft 8s 7 11 mph 1014.4mb 51f 50f
9:04 3.5ft 8s 4 7 mph 1014.5mb 51f 50f
8:04 3ft 8s 2 4 mph 1014.2mb 50f 51f
7:04 3ft 8s 4
mph
1014.4mb 50f 50f
6:04 3.5ft 8s 4 7 mph 1014.3mb 50f 50f
5:04 2.5ft 8s  -  2 mph 1013.1mb 50f 50f
4:04 3.5ft 8s 4 7 mph 1013.2mb 50f 50f
3:04 2.5ft 11s  -  2 mph 1013.2mb 50f 50f
2:04 3ft 8s 7
mph
1012.9mb 50f 49f
1:04 3.5ft 8s 7
mph
1013mb 50f 49f
12:04 3.5ft 8s 4 7 mph 1013.7mb 50f 49f
mar. 05/24 11:04 4ft 8s 9 11 mph 1013.5mb 50f 49f
10:04 3.5ft 8s 9 11 mph 1013.6mb 50f 49f
9:04 4.5ft 8s 9
mph
1013.8mb 50f 49f
8:04 4.5ft 8s 9 11 mph 1013.8mb 50f 50f
7:04 4ft 8s 9 11 mph 1013.7mb 50f 50f
6:04 4ft 8s 11 13 mph 1013.3mb 50f 50f
5:04 5ft 11s 11
mph
1013.6mb 50f 50f
4:04 4ft 11s 11 16 mph 1013.5mb 50f 50f
3:04 5ft 11s 16 18 mph 1013.3mb 50f 49f
2:04 4.5ft 8s 13 16 mph 1013.8mb 50f 49f
1:04 4.5ft 8s 16 18 mph 1013.6mb 50f 49f
12:04 5ft 11s 18 20 mph 1013.7mb 50f 49f
11:04 5ft 11s 18 22 mph 1013.9mb 51f 49f
10:04 4.5ft 8s 18 20 mph 1013.6mb 51f 49f
9:04 5ft 8s 16 18 mph 1013.8mb 51f 49f
8:04 5ft 8s 13 16 mph 1013.9mb 51f 49f
5:04 4.5ft 11s 13 16 mph 1013.2mb 50f 50f
4:04 4ft 11s 11 13 mph 1013.4mb 50f 51f
3:04 4.5ft 11s 9 11 mph 1012.8mb 50f 51f
2:04 3.5ft 11s 9
mph
1012.8mb 51f 52f
1:04 4.5ft 11s 7 9 mph 1012.7mb 50f 51f
12:04 4ft 11s 9 11 mph 1013mb 51f 52f
lun. 05/23 11:04 4.5ft 11s 7
mph
1013mb 51f 52f
10:04 5.5ft 11s 2 4 mph 1012.8mb 51f 52f
9:04 5ft 11s 2
mph
1012.5mb 51f 53f
8:04 5.5ft 11s 2 4 mph 1011.8mb 51f 53f
7:04 6ft 11s 7
mph
1012.5mb 51f 54f
6:04 6ft 11s 9 11 mph 1012mb 52f 54f
5:04 4.5ft 11s 11 16 mph 1010.8mb 54f 56f
4:04 4.5ft 11s 7 9 mph 1010.3mb 53f 58f
3:04 4ft 11s 7
mph
1010.1mb 52f 60f
2:04 4.5ft 11s 2 7 mph 1010.5mb 52f 65f
1:04 6ft 11s 4
mph
1010.7mb 51f 62f
12:04 5ft 11s 2 4 mph 1011mb 52f 58f
11:04 5ft 11s 7
mph
1011.1mb 51f 57f
10:04 5ft 11s 4 7 mph 1011.2mb 50f 54f
9:04 5ft 11s 7 9 mph 1011.4mb 50f 54f
8:04 6ft 11s 9 13 mph 1011.5mb 50f 52f
7:04 6.5ft 11s 7
mph
1011.6mb 49f 52f
6:04 6ft 11s 7 9 mph 1011.4mb 49f 51f
5:04 7ft 11s 4 7 mph 1010.5mb 49f 51f
4:04 5ft 11s 7 9 mph 1010.1mb 49f 51f
3:04 4.5ft 11s 7
mph
1010.5mb 49f 51f
2:04 4.5ft 11s 9
mph
1010.5mb 50f 51f
1:04 4ft 11s 9 11 mph 1010.3mb 50f 51f
12:04 4.5ft 11s 4 9 mph 1010.4mb 50f 51f
dim. 05/22 11:04 4ft 11s 9 11 mph 1010.2mb 50f 51f